Location: Gradaro
(45.0833°N, 10.8833°E)
Time: 10:29:14
(UTC+00:00)

FENGYUN 1C DEB - Pass Details

Date: 01 July 2021
Orbit: 803 x 830 km, 98.8° (Epoch: 28 July)

Event Time Altitude Azimuth Distance (km) Brightness Sun altitude
Exits shadow 20:46:50 18° 127° (SE) 1,905 ? -13.4°
Maximum altitude 20:50:20 40° 67° (ENE) 1,193 ? -13.8°
Drops below altitude 10° 20:55:18 10° 359° (N) 2,426 ? -14.3°
Sets 20:57:47 0° 353° (N) 3,367 ? -14.5°
